Torna al catalogo

FENGYUN 1C DEB

AttivoSSO
NORAD 31552·DEBRIS·🇨🇳 China

Lanciato May 10, 1999 da Taiyuan Satellite Launch Center

Loading…

Prossimi Passaggi (prossime 24 ore)

TLE

In scadenzaSource: Space-Track

Epoca: Sep 9, 2026, 02:30 UTC

1 31552U 99025BYT 26252.10421689  .00008118  00000-0  19523-2 0  9999
2 31552  98.6255  24.9037 0078417 281.8050  77.4356 14.51730318997920

Traccia FENGYUN 1C DEB in tempo reale con AllMySat

Download on the App Store